Location: Gand�
(15.0971°N, 12.6564°W)
Time: 15:24:26
(UTC+00:00)

ERS-2 - Pass Details

Date: 07 August 2020
Orbit: 494 x 498 km, 98.6° (Epoch: 19 September)

Event Time Altitude Azimuth Distance (km) Brightness Sun altitude
Exits shadow 05:02:40 63° 328° (NNW) 552 2.2 -21.6°
Drops below altitude 10° 05:05:46 10° 345° (NNW) 1,685 4.9 -20.9°
Sets 05:07:51 0° 347° (NNW) 2,568 5.9 -20.5°
